Погода в Алачаты

Турция     38°17′12″N   26°22′32″E
темп.,
°C
ветер,
м/с
пор.,
м/с
влажн.,
%
обл.,
%
осадки,
мм/ч
давл.,
гПа
погр.,
м
19 сентября, вс
вс1900:00+22ю22740 0.0 101328
03:00+22ююв22680 0.0 101314
06:00+22всв11660 0.0 101311
09:00+26ююз00520 0.0 1014172
12:00+30юз33390 0.0 1014908
15:00+30юз45390 0.0 1013639
18:00+27ююз24475 0.0 1013223
21:00+24юв22582 0.1 101329
20 сентября, пн
пн2000:00+23юв33590 0.0 101339
03:00+22вюв22630 0.0 101222
06:00+22юв22700 0.0 101215
09:00+25юв24550 0.0 1012300
12:00+27ююз44550 0.0 1013495
15:00+29ююз44440 0.0 1011538
18:00+26ююз34550 0.0 1011240
21:00+22ююв33700 0.0 101227
21 сентября, вт
вт2100:00+21ююв22765 0.0 101222
03:00+21вюв22670 0.0 101223
06:00+21вюв1173100 0.0 101214
09:00+25з01575 0.0 1013173
12:00+27з335398 0.0 1013683
15:00+28зсз564539 0.0 1013782
18:00+24с611605 0.0 1013324
21:00+22с367881 0.0 1014207
22 сентября, ср
ср2200:00+20св713750 0.0 1015513
03:00+19св613770 0.0 1015511
06:00+18ссв613760 0.0 1015525
09:00+19ссв712606 0.0 1015539
12:00+23ссв794399 0.0 1014792
15:00+26с57340 0.0 10131248
18:00+21ссз89561 0.0 1013577
21:00+19ссз34720 0.0 1012103
23 сентября, чт
чт2300:00+17ссв4652100 0.0 1012139
03:00+18ссв4650100 0.0 1011433
06:00+17ссв5960100 0.0 1012933
09:00+18ссв6105079 0.0 10121019
12:00+20с69430 0.0 10131620
15:00+21ссз79365 0.0 10132104
18:00+19ссв894613 0.0 10141740
21:00+15св711590 0.0 1016692